DW2182 Weather Reports


time (UTC)temp
C
wind
direction
speed
KPH
gust
KPH
rain 1hr
cm
rain 24hr
cm
rain mn
cm
humidity
%
barometer
mb
20260905111516 20 45 1.6 3.2 0.00 0.00 0.00 95 1014.3
20260905110516 20 0.0 3.2 0.00 0.00 0.00 95 1014.7
20260905105516 20 0.0 0.0 0.00 0.00 0.00 95 1014.6
20260905104516 20 0.0 4.8 0.00 0.00 0.00 95 1014.1
20260905103516 20 45 1.6 3.2 0.00 0.00 0.00 95 1013.9
20260905102516 21 45 1.6 4.8 0.00 0.00 0.00 95 1014.1
20260905101516 21 0.0 0.0 0.00 0.00 0.00 95 1014.0
20260905100536 21 0.0 0.0 0.00 0.00 0.00 95 1014.0
20260905095516 21 0.0 0.0 0.00 0.00 0.00 95 1013.9
20260905094515 21 0.0 0.0 0.00 0.00 0.00 95 1014.1
20260905093515 21 0.0 0.0 0.00 0.00 0.00 94 1014.3
20260905092515 21 0.0 0.0 0.00 0.00 0.00 94 1014.3
20260905091536 21 0.0 1.6 0.00 0.00 0.00 94 1013.8
20260905090516 21 0.0 3.2 0.00 0.00 0.00 94 1013.6
20260905085535 21 45 3.2 8.0 0.00 0.00 0.00 94 1013.5
20260905084536 21 45 3.2 6.4 0.00 0.00 0.00 93 1013.6
20260905083515 21 45 1.6 4.8 0.00 0.00 0.00 93 1014.0
20260905082538 21 45 1.6 6.4 0.00 0.00 0.00 93 1014.0
20260905081517 21 45 3.2 6.4 0.00 0.00 0.00 92 1014.1
20260905080517 21 45 3.2 6.4 0.00 0.00 0.00 92 1014.1
20260905075517 21 45 3.2 6.4 0.00 0.00 0.00 92 1014.3
20260905074517 22 45 1.6 4.8 0.00 0.00 0.00 92 1014.4
20260905073539 22 45 1.6 4.8 0.00 0.00 0.00 92 1014.1
20260905072517 22 45 1.6 4.8 0.00 0.00 0.00 92 1014.3
20260905071517 22 45 3.2 4.8 0.00 0.00 0.00 92 1014.1
20260905070516 22 45 3.2 4.8 0.00 0.00 0.00 91 1014.1
20260905065516 22 45 1.6 6.4 0.00 0.00 0.00 91 1014.2
20260905064517 22 68 1.6 4.8 0.00 0.00 0.00 91 1014.3
20260905063516 23 68 1.6 6.4 0.00 0.00 0.00 90 1014.2
20260905062516 23 45 1.6 6.4 0.00 0.00 0.00 91 1014.1
20260905061536 23 23 1.6 3.2 0.00 0.00 0.00 91 1014.1
20260905060517 23 45 1.6 3.2 0.00 0.00 0.00 91 1014.0
20260905055516 23 45 1.6 4.8 0.00 0.00 0.00 91 1013.9
20260905054537 23 0.0 0.0 0.00 0.00 0.00 91 1014.0
20260905053517 23 45 1.6 4.8 0.00 0.00 0.00 91 1013.7
20260905052516 23 45 1.6 3.2 0.00 0.00 0.00 91 1013.8
20260905051516 23 0.0 0.0 0.00 0.00 0.00 90 1013.6
20260905050516 23 0.0 0.0 0.00 0.00 0.00 90 1013.6
20260905045537 23 45 1.6 4.8 0.00 0.00 0.00 90 1013.5
20260905044517 24 45 1.6 4.8 0.00 0.00 0.00 90 1013.5
20260905043517 24 0.0 0.0 0.00 0.00 0.00 90 1013.7
20260905042517 24 45 1.6 3.2 0.00 0.00 0.00 90 1013.7
20260905041516 24 0.0 0.0 0.00 0.00 0.00 90 1013.8
20260905040517 24 45 1.6 4.8 0.00 0.00 0.00 90 1013.8
20260905035517 24 45 1.6 3.2 0.00 0.00 0.00 90 1013.6
20260905034517 24 45 1.6 4.8 0.00 0.00 0.00 89 1013.7
20260905033517 24 45 1.6 6.4 0.00 0.00 0.00 89 1013.4
20260905032516 25 45 1.6 6.4 0.00 0.00 0.00 89 1013.6
20260905031557 25 45 3.2 6.4 0.00 0.00 0.00 89 1013.5
20260905030516 25 45 3.2 6.4 0.00 0.00 0.00 89 1013.3
20260905025516 25 45 3.2 6.4 0.00 0.00 0.00 89 1013.2
20260905024516 25 45 3.2 4.8 0.00 0.00 0.00 88 1013.1
20260905023517 25 45 1.6 6.4 0.00 0.00 0.00 88 1012.9
20260905022517 25 45 3.2 6.4 0.00 0.00 0.00 87 1012.8
20260905021538 26 45 3.2 8.0 0.00 0.00 0.00 87 1012.9
20260905020517 26 23 1.6 6.4 0.00 0.00 0.00 87 1012.7
20260905015516 26 45 3.2 6.4 0.00 0.00 0.00 87 1012.4
20260905014516 26 23 3.2 8.0 0.00 0.00 0.00 87 1012.4
20260905013516 26 23 3.2 6.4 0.00 0.00 0.00 87 1012.3
20260905012536 26 45 1.6 8.0 0.00 0.00 0.00 87 1012.3
20260905011536 27 23 1.6 6.4 0.00 0.00 0.00 87 1012.3
20260905010516 27 0.0 4.8 0.00 0.00 0.00 87 1012.1
20260905005516 27 23 1.6 4.8 0.00 0.00 0.00 87 1012.1
20260905004536 28 23 1.6 3.2 0.00 0.00 0.00 86 1012.1
20260905003536 28 23 1.6 4.8 0.00 0.00 0.00 85 1012.2
20260905002516 28 23 3.2 9.7 0.00 0.00 0.00 84 1012.1
20260905001517 28 0 1.6 4.8 0.00 0.00 0.00 84 1012.1
20260905000536 29 45 1.6 4.8 0.00 0.00 0.00 83 1012.1
20260904235516 29 23 4.8 9.7 0.00 0.00 0.00 82 1012.0
20260904234516 30 45 4.8 14.5 0.00 0.00 0.00 82 1012.0
20260904233517 30 23 3.2 8.0 0.00 0.00 0.00 82 1012.1
20260904232516 30 45 3.2 6.4 0.00 0.00 0.00 81 1012.0
20260904231516 30 0 6.4 12.9 0.00 0.00 0.00 80 1012.0
20260904230516 30 45 3.2 6.4 0.00 0.00 0.00 81 1011.8
20260904225516 30 45 3.2 8.0 0.00 0.00 0.00 80 1011.9
20260904224516 30 23 4.8 11.3 0.00 0.00 0.00 79 1011.9
20260904223516 30 45 3.2 9.7 0.00 0.00 0.00 80 1011.8
20260904222516 31 45 4.8 14.5 0.00 0.00 0.00 79 1011.6
20260904221516 31 45 3.2 8.0 0.00 0.00 0.00 79 1011.6
20260904220516 31 23 3.2 6.4 0.00 0.00 0.00 77 1011.7
20260904215516 31 45 4.8 11.3 0.00 0.00 0.00 77 1011.7
20260904214516 32 23 4.8 14.5 0.00 0.00 0.00 76 1011.7
20260904213536 32 23 4.8 16.1 0.00 0.00 0.00 75 1011.8
20260904212556 32 23 4.8 8.0 0.00 0.00 0.00 75 1011.7
20260904211517 32 45 6.4 12.9 0.00 0.00 0.00 73 1011.8
20260904210517 32 23 4.8 12.9 0.00 0.00 0.00 74 1011.8
20260904205517 32 45 1.6 9.7 0.00 0.00 0.00 74 1011.7
20260904204516 32 23 6.4 12.9 0.00 0.00 0.00 73 1011.7
20260904203516 33 45 3.2 19.3 0.00 0.00 0.00 72 1011.9
20260904202516 33 45 3.2 6.4 0.00 0.00 0.00 68 1011.8
20260904201516 33 45 3.2 11.3 0.00 0.00 0.00 66 1011.8
20260904200516 33 45 1.6 6.4 0.00 0.00 0.00 65 1011.7
20260904195516 33 23 4.8 11.3 0.00 0.00 0.00 66 1011.8
20260904194516 33 45 4.8 11.3 0.00 0.00 0.00 66 1011.6
20260904193516 33 23 3.2 8.0 0.00 0.00 0.00 68 1011.6
20260904192516 33 45 3.2 14.5 0.00 0.00 0.00 68 1011.6
20260904191536 32 23 3.2 8.0 0.00 0.00 0.00 70 1011.5
20260904190516 32 45 3.2 6.4 0.00 0.00 0.00 68 1011.6
20260904185516 32 23 1.6 6.4 0.00 0.00 0.00 70 1011.6
20260904184516 32 0 4.8 9.7 0.00 0.00 0.00 66 1011.6
20260904183516 32 23 1.6 4.8 0.00 0.00 0.00 70 1011.7
20260904182516 32 0 4.8 8.0 0.00 0.00 0.00 71 1011.9
20260904181516 32 45 4.8 9.7 0.00 0.00 0.00 71 1011.9
20260904180516 32 158 4.8 11.3 0.00 0.00 0.00 70 1011.9
20260904175516 31 45 3.2 6.4 0.00 0.00 0.00 71 1011.9
20260904174516 32 23 4.8 12.9 0.00 0.00 0.00 71 1011.8
20260904173516 31 45 1.6 11.3 0.00 0.00 0.00 73 1011.7
20260904172536 31 0 1.6 8.0 0.00 0.00 0.00 72 1011.8
20260904171536 31 0 3.2 8.0 0.00 0.00 0.00 71 1011.8
20260904170517 31 158 3.2 6.4 0.00 0.00 0.00 75 1011.7
20260904165516 30 135 3.2 8.0 0.00 0.00 0.00 77 1011.6
20260904164516 30 158 1.6 4.8 0.00 0.00 0.00 76 1011.7
20260904163516 30 158 3.2 9.7 0.00 0.00 0.00 75 1011.5
20260904162516 29 0 1.6 6.4 0.00 0.00 0.00 77 1011.3
20260904161516 29 158 4.8 8.0 0.00 0.00 0.00 78 1011.1
20260904160516 28 0 1.6 4.8 0.00 0.03 0.00 79 1010.9
20260904155516 28 0 1.6 6.4 0.00 0.03 0.00 81 1011.0
20260904154536 28 0 1.6 4.8 0.00 0.03 0.00 82 1010.9
20260904153516 27 0 1.6 6.4 0.00 0.03 0.00 82 1010.9
20260904152516 27 0 1.6 4.8 0.00 0.03 0.00 83 1010.7
20260904151536 27 0 1.6 6.4 0.00 0.03 0.00 84 1010.7
20260904150516 26 90 1.6 4.8 0.00 0.03 0.00 86 1010.7
20260904145536 26 90 3.2 9.7 0.00 0.03 0.00 87 1010.7
20260904144516 26 90 1.6 4.8 0.00 0.03 0.00 87 1010.7
20260904143516 25 90 1.6 6.4 0.00 0.03 0.00 88 1010.8
20260904142517 25 90 3.2 6.4 0.00 0.03 0.00 89 1010.7
20260904141536 25 90 4.8 6.4 0.00 0.03 0.00 90 1010.6
20260904140517 24 90 4.8 9.7 0.00 0.03 0.00 90 1010.5
20260904135517 23 90 6.4 11.3 0.00 0.03 0.00 91 1010.5
20260904134537 23 90 4.8 9.7 0.00 0.03 0.00 92 1010.6
20260904133518 23 90 3.2 6.4 0.00 0.03 0.00 93 1010.4
20260904132518 23 90 3.2 6.4 0.00 0.03 0.00 93 1010.5
20260904131537 22 90 1.6 4.8 0.00 0.03 0.00 94 1010.3
20260904130518 22 0.0 4.8 0.00 0.03 0.00 95 1010.3
20260904125518 22 0.0 0.0 0.00 0.05 0.00 95 1010.3
20260904124518 22 68 1.6 3.2 0.00 0.05 0.00 96 1010.3
20260904123518 22 68 1.6 4.8 0.00 0.05 0.00 96 1010.2
20260904122517 22 68 3.2 6.4 0.00 0.05 0.00 96 1010.1
20260904121517 21 68 1.6 4.8 0.00 0.05 0.00 97 1010.1
20260904120517 21 0.0 1.6 0.00 0.05 0.00 96 1010.1
20260904115537 21 0.0 0.0 0.00 0.05 0.00 96 1009.9
20260904114517 21 0.0 3.2 0.00 0.05 0.00 96 1009.8
20260904113517 21 0.0 0.0 0.00 0.08 0.00 96 1009.7
20260904112518 22 0.0 0.0 0.00 0.08 0.00 96 1009.6